Time,TemperatureF,DewpointF,PressureIn,WindDirection,WindDirectionDegrees,WindSpeedMPH,WindSpeedGustMPH,Humidity,HourlyPrecipIn,Conditions,Clouds,dailyrainin,SoftwareType,DateUTC
2013-06-15 00:06:00,53.7,39.0,29.79,NNE,26,0.0,2.0,58,0.00,,,0.00,weatherlink.com 1.10,2013-06-15 04:06:00,
2013-06-15 00:21:00,53.3,39.0,29.79,NNE,15,2.0,4.0,58,0.00,,,0.00,weatherlink.com 1.10,2013-06-15 04:21:00,
2013-06-15 00:36:00,53.0,38.0,29.79,North,360,2.0,5.0,58,0.00,,,0.00,weatherlink.com 1.10,2013-06-15 04:36:00,
2013-06-15 00:52:00,52.7,38.0,29.79,NNW,342,2.0,3.0,58,0.00,,,0.00,weatherlink.com 1.10,2013-06-15 04:52:00,
2013-06-15 01:07:00,52.4,38.0,29.79,NNE,19,2.0,4.0,58,0.00,,,0.00,weatherlink.com 1.10,2013-06-15 05:07:00,
2013-06-15 01:22:00,52.2,38.0,29.79,NNE,26,1.0,4.0,58,0.00,,,0.00,weatherlink.com 1.10,2013-06-15 05:22:00,
2013-06-15 01:37:00,51.7,38.0,29.79,North,9,2.0,4.0,59,0.00,,,0.00,weatherlink.com 1.10,2013-06-15 05:37:00,
2013-06-15 01:52:00,50.9,37.0,29.79,NNE,18,2.0,5.0,60,0.00,,,0.00,weatherlink.com 1.10,2013-06-15 05:52:00,
2013-06-15 02:07:00,50.2,37.0,29.80,NNE,15,2.0,4.0,62,0.00,,,0.00,weatherlink.com 1.10,2013-06-15 06:07:00,
2013-06-15 02:22:00,49.5,37.0,29.80,North,5,1.0,3.0,63,0.00,,,0.00,weatherlink.com 1.10,2013-06-15 06:22:00,
2013-06-15 02:37:00,49.1,37.0,29.81,North,9,3.0,4.0,64,0.00,,,0.00,weatherlink.com 1.10,2013-06-15 06:37:00,
2013-06-15 02:52:00,48.8,37.0,29.81,NNE,12,3.0,4.0,65,0.00,,,0.00,weatherlink.com 1.10,2013-06-15 06:52:00,
2013-06-15 03:07:00,48.6,37.0,29.81,North,9,2.0,4.0,65,0.00,,,0.00,weatherlink.com 1.10,2013-06-15 07:07:00,
2013-06-15 03:22:00,48.3,37.0,29.81,NNE,13,2.0,4.0,66,0.00,,,0.00,weatherlink.com 1.10,2013-06-15 07:22:00,
2013-06-15 03:37:00,48.1,37.0,29.81,NNE,17,0.0,2.0,66,0.00,,,0.00,weatherlink.com 1.10,2013-06-15 07:37:00,
2013-06-15 03:52:00,47.9,37.0,29.82,NNW,327,0.0,3.0,67,0.00,,,0.00,weatherlink.com 1.10,2013-06-15 07:52:00,
2013-06-15 04:07:00,47.1,38.0,29.82,North,355,0.0,2.0,71,0.00,,,0.00,weatherlink.com 1.10,2013-06-15 08:07:00,
2013-06-15 04:22:00,44.5,40.0,29.82,North,360,1.0,3.0,85,0.00,,,0.00,weatherlink.com 1.10,2013-06-15 08:22:00,
2013-06-15 04:37:00,43.4,39.0,29.82,North,360,0.0,1.0,85,0.00,,,0.00,weatherlink.com 1.10,2013-06-15 08:37:00,
2013-06-15 04:52:00,43.3,39.0,29.83,North,360,0.0,1.0,86,0.00,,,0.00,weatherlink.com 1.10,2013-06-15 08:52:00,
2013-06-15 05:07:00,42.7,40.0,29.84,North,360,0.0,0.0,89,0.00,,,0.00,weatherlink.com 1.10,2013-06-15 09:07:00,
2013-06-15 05:22:00,45.3,38.0,29.84,NNW,342,0.0,1.0,76,0.00,,,0.00,weatherlink.com 1.10,2013-06-15 09:22:00,
2013-06-15 05:37:00,47.0,39.0,29.85,NNW,342,0.0,2.0,73,0.00,,,0.00,weatherlink.com 1.10,2013-06-15 09:37:00,
2013-06-15 05:52:00,48.3,39.0,29.85,NNW,329,0.0,3.0,70,0.00,,,0.00,weatherlink.com 1.10,2013-06-15 09:52:00,
2013-06-15 06:07:00,49.3,39.0,29.85,NNW,331,0.0,2.0,68,0.00,,,0.00,weatherlink.com 1.10,2013-06-15 10:07:00,
2013-06-15 06:22:00,49.9,39.0,29.85,North,11,0.0,4.0,67,0.00,,,0.00,weatherlink.com 1.10,2013-06-15 10:22:00,
2013-06-15 06:37:00,50.7,40.0,29.86,NNE,22,3.0,4.0,66,0.00,,,0.00,weatherlink.com 1.10,2013-06-15 10:37:00,
2013-06-15 06:52:00,52.4,39.0,29.85,NW,308,2.0,4.0,61,0.00,,,0.00,weatherlink.com 1.10,2013-06-15 10:52:00,
2013-06-15 07:07:00,52.4,40.0,29.86,NE,51,1.0,3.0,63,0.00,,,0.00,weatherlink.com 1.10,2013-06-15 11:07:00,
2013-06-15 07:22:00,52.7,39.0,29.86,NNE,24,0.0,4.0,61,0.00,,,0.00,weatherlink.com 1.10,2013-06-15 11:22:00,
2013-06-15 07:38:00,53.8,40.0,29.86,NNE,31,2.0,5.0,59,0.00,,,0.00,weatherlink.com 1.10,2013-06-15 11:38:00,
2013-06-15 07:53:00,54.6,41.0,29.86,NNE,31,0.0,5.0,60,0.00,,,0.00,weatherlink.com 1.10,2013-06-15 11:53:00,
2013-06-15 08:08:00,54.9,40.0,29.87,NNW,346,4.0,6.0,58,0.00,,,0.00,weatherlink.com 1.10,2013-06-15 12:08:00,
2013-06-15 08:23:00,55.5,41.0,29.88,NNW,346,0.0,9.0,59,0.00,,,0.00,weatherlink.com 1.10,2013-06-15 12:23:00,
2013-06-15 10:14:00,59.9,40.0,29.88,NNE,33,1.0,12.0,49,0.00,,,0.00,weatherlink.com 1.10,2013-06-15 14:14:00,
2013-06-15 10:23:00,60.4,40.0,29.87,ENE,67,8.0,13.0,47,0.00,,,0.00,weatherlink.com 1.10,2013-06-15 14:23:00,
2013-06-15 10:38:00,59.6,41.0,29.87,NNW,347,4.0,7.0,50,0.00,,,0.00,weatherlink.com 1.10,2013-06-15 14:38:00,
2013-06-15 10:53:00,60.4,40.0,29.87,NNE,21,4.0,9.0,48,0.00,,,0.00,weatherlink.com 1.10,2013-06-15 14:53:00,
2013-06-15 11:08:00,61.1,41.0,29.87,North,5,3.0,10.0,48,0.00,,,0.00,weatherlink.com 1.10,2013-06-15 15:08:00,
2013-06-15 11:23:00,61.8,41.0,29.87,WNW,298,4.0,14.0,46,0.00,,,0.00,weatherlink.com 1.10,2013-06-15 15:23:00,
2013-06-15 11:38:00,59.8,41.0,29.87,NNW,347,1.0,9.0,50,0.00,,,0.00,weatherlink.com 1.10,2013-06-15 15:38:00,
2013-06-15 11:53:00,62.2,43.0,29.87,ENE,57,3.0,8.0,49,0.00,,,0.00,weatherlink.com 1.10,2013-06-15 15:53:00,
2013-06-15 12:08:00,61.3,41.0,29.87,NNW,342,1.0,10.0,48,0.00,,,0.00,weatherlink.com 1.10,2013-06-15 16:08:00,
2013-06-15 12:23:00,61.9,41.0,29.87,North,360,7.0,10.0,46,0.00,,,0.00,weatherlink.com 1.10,2013-06-15 16:23:00,
2013-06-15 12:38:00,60.3,41.0,29.87,NW,323,2.0,10.0,49,0.00,,,0.00,weatherlink.com 1.10,2013-06-15 16:38:00,
2013-06-15 12:53:00,60.7,42.0,29.87,NNW,348,0.0,9.0,50,0.00,,,0.00,weatherlink.com 1.10,2013-06-15 16:53:00,
2013-06-15 13:08:00,61.1,41.0,29.87,NNW,342,8.0,10.0,48,0.00,,,0.00,weatherlink.com 1.10,2013-06-15 17:08:00,
2013-06-15 13:23:00,62.4,42.0,29.86,NNW,343,6.0,9.0,47,0.00,,,0.00,weatherlink.com 1.10,2013-06-15 17:23:00,
2013-06-15 13:38:00,61.7,40.0,29.86,North,5,2.0,7.0,45,0.00,,,0.00,weatherlink.com 1.10,2013-06-15 17:38:00,
2013-06-15 13:53:00,63.2,40.0,29.86,West,261,2.0,12.0,42,0.00,,,0.00,weatherlink.com 1.10,2013-06-15 17:53:00,
2013-06-15 14:08:00,63.6,41.0,29.85,NE,52,1.0,14.0,43,0.00,,,0.00,weatherlink.com 1.10,2013-06-15 18:08:00,
2013-06-15 14:23:00,63.2,41.0,29.85,West,265,1.0,10.0,44,0.00,,,0.00,weatherlink.com 1.10,2013-06-15 18:23:00,
2013-06-15 14:38:00,62.7,41.0,29.85,North,355,4.0,10.0,45,0.00,,,0.00,weatherlink.com 1.10,2013-06-15 18:38:00,
2013-06-15 14:53:00,63.2,41.0,29.85,NE,36,5.0,13.0,44,0.00,,,0.00,weatherlink.com 1.10,2013-06-15 18:53:00,
2013-06-15 15:08:00,63.4,42.0,29.84,ENE,67,5.0,12.0,45,0.00,,,0.00,weatherlink.com 1.10,2013-06-15 19:08:00,
2013-06-15 15:23:00,62.3,42.0,29.84,North,360,0.0,12.0,48,0.00,,,0.00,weatherlink.com 1.10,2013-06-15 19:23:00,
2013-06-15 15:38:00,63.2,41.0,29.84,North,355,3.0,13.0,45,0.00,,,0.00,weatherlink.com 1.10,2013-06-15 19:38:00,
2013-06-15 15:53:00,62.6,41.0,29.85,North,5,6.0,10.0,45,0.00,,,0.00,weatherlink.com 1.10,2013-06-15 19:53:00,
2013-06-15 16:08:00,62.7,41.0,29.85,NE,34,2.0,12.0,45,0.00,,,0.00,weatherlink.com 1.10,2013-06-15 20:08:00,
2013-06-15 16:23:00,62.5,42.0,29.84,NNW,342,1.0,12.0,47,0.00,,,0.00,weatherlink.com 1.10,2013-06-15 20:23:00,
2013-06-15 16:38:00,63.0,41.0,29.84,NW,323,7.0,18.0,45,0.00,,,0.00,weatherlink.com 1.10,2013-06-15 20:38:00,
2013-06-15 16:53:00,62.7,41.0,29.84,NW,325,2.0,14.0,46,0.00,,,0.00,weatherlink.com 1.10,2013-06-15 20:53:00,
2013-06-15 17:08:00,63.0,41.0,29.84,NNE,22,3.0,17.0,44,0.00,,,0.00,weatherlink.com 1.10,2013-06-15 21:08:00,
2013-06-15 17:23:00,62.8,42.0,29.84,NNW,338,2.0,11.0,47,0.00,,,0.00,weatherlink.com 1.10,2013-06-15 21:23:00,
2013-06-15 17:38:00,62.3,41.0,29.84,NE,55,1.0,16.0,45,0.00,,,0.00,weatherlink.com 1.10,2013-06-15 21:38:00,
2013-06-15 17:53:00,62.4,41.0,29.84,North,11,3.0,18.0,46,0.00,,,0.00,weatherlink.com 1.10,2013-06-15 21:53:00,
2013-06-15 18:08:00,62.8,41.0,29.84,North,5,6.0,14.0,45,0.00,,,0.00,weatherlink.com 1.10,2013-06-15 22:08:00,
2013-06-15 18:23:00,62.4,41.0,29.84,NNE,26,4.0,9.0,45,0.00,,,0.00,weatherlink.com 1.10,2013-06-15 22:23:00,
2013-06-15 18:38:00,62.3,41.0,29.84,NNE,13,0.0,10.0,46,0.00,,,0.00,weatherlink.com 1.10,2013-06-15 22:38:00,
2013-06-15 18:53:00,61.8,41.0,29.84,NNW,333,2.0,11.0,47,0.00,,,0.00,weatherlink.com 1.10,2013-06-15 22:53:00,
2013-06-15 19:08:00,61.3,41.0,29.84,North,351,1.0,10.0,48,0.00,,,0.00,weatherlink.com 1.10,2013-06-15 23:08:00,
2013-06-15 19:23:00,61.1,41.0,29.84,North,5,2.0,11.0,48,0.00,,,0.00,weatherlink.com 1.10,2013-06-15 23:23:00,
2013-06-15 19:38:00,60.4,41.0,29.85,NNE,24,0.0,6.0,50,0.00,,,0.00,weatherlink.com 1.10,2013-06-15 23:38:00,
2013-06-15 19:53:00,59.7,41.0,29.85,NW,326,0.0,8.0,51,0.00,,,0.00,weatherlink.com 1.10,2013-06-15 23:53:00,
2013-06-15 20:08:00,58.7,41.0,29.85,WNW,294,0.0,4.0,52,0.00,,,0.00,weatherlink.com 1.10,2013-06-16 00:08:00,
2013-06-15 20:23:00,57.9,42.0,29.85,NNE,13,2.0,4.0,55,0.00,,,0.00,weatherlink.com 1.10,2013-06-16 00:23:00,
2013-06-15 20:38:00,57.3,42.0,29.85,WNW,302,0.0,6.0,56,0.00,,,0.00,weatherlink.com 1.10,2013-06-16 00:38:00,
2013-06-15 20:53:00,56.9,42.0,29.85,NW,326,1.0,6.0,58,0.00,,,0.00,weatherlink.com 1.10,2013-06-16 00:53:00,
2013-06-15 21:08:00,56.6,42.0,29.85,NW,323,0.0,6.0,59,0.00,,,0.00,weatherlink.com 1.10,2013-06-16 01:08:00,
2013-06-15 21:23:00,56.3,42.0,29.86,NW,313,1.0,8.0,60,0.00,,,0.00,weatherlink.com 1.10,2013-06-16 01:23:00,
2013-06-15 21:38:00,56.3,42.0,29.86,North,350,0.0,5.0,60,0.00,,,0.00,weatherlink.com 1.10,2013-06-16 01:38:00,
2013-06-15 21:53:00,56.2,42.0,29.86,WNW,287,0.0,6.0,60,0.00,,,0.00,weatherlink.com 1.10,2013-06-16 01:53:00,
2013-06-15 22:08:00,56.2,42.0,29.87,WNW,287,0.0,5.0,59,0.00,,,0.00,weatherlink.com 1.10,2013-06-16 02:08:00,
2013-06-15 22:23:00,56.2,42.0,29.87,North,5,0.0,7.0,60,0.00,,,0.00,weatherlink.com 1.10,2013-06-16 02:23:00,
2013-06-15 22:38:00,56.0,42.0,29.87,West,269,3.0,6.0,60,0.00,,,0.00,weatherlink.com 1.10,2013-06-16 02:38:00,
2013-06-15 22:53:00,56.1,42.0,29.86,WNW,284,1.0,5.0,60,0.00,,,0.00,weatherlink.com 1.10,2013-06-16 02:53:00,
2013-06-15 23:08:00,55.8,42.0,29.87,WNW,283,5.0,6.0,61,0.00,,,0.00,weatherlink.com 1.10,2013-06-16 03:08:00,
2013-06-15 23:23:00,56.0,43.0,29.87,North,360,0.0,7.0,61,0.00,,,0.00,weatherlink.com 1.10,2013-06-16 03:23:00,
2013-06-15 23:38:00,55.7,43.0,29.86,SSW,206,3.0,7.0,62,0.00,,,0.00,weatherlink.com 1.10,2013-06-16 03:38:00,
2013-06-15 23:53:00,54.4,42.0,29.86,West,268,0.0,6.0,64,0.00,,,0.00,weatherlink.com 1.10,2013-06-16 03:53:00,